Temperature
15 15 15 15 15 15 15 15 15 15 16 16 16 16 16 16 16 16 16 16 16 16 16 16 17 17 17 17 17 17 17 17 17 17 17 17 17 17 17 17 17 17 18
14 14 15 15 15 15 15 15 15 15 16 16 15 15 16 16 16 16 16 16 16 16 16 17 17 17 17 16 17 17 17 17 17 17 17 17 17 17 17 17 17 16 18
14 14 14 15 15 15 15 15 15 15 16 16 15 15 16 16 16 16 16 16 16 16 16 16 17 16 17 16 16 16 17 17 17 17 17 17 17 17 17 17 17 17 17
13 14 14 15 15 15 15 15 14 14 15 15 15 15 16 16 16 16 15 15 16 16 16 16 16 16 16 16 16 16 16 16 16 17 16 16 16 17 17 17 17 17 17
14 14 14 14 14 15 15 15 15 14 14 14 14 14 14 15 15 15 15 15 15 16 16 16 16 16 16 16 16 16 16 16 16 16 15 15 16 17 17 17 17 17 17
13 13 13 14 14 14 15 15 14 14 14 14 14 14 14 14 14 14 15 15 15 15 16 16 15 15 15 16 16 16 16 16 16 15 15 15 16 16 17 17 17 17 17
12 13 13 13 14 14 14 14 14 14 14 14 14 14 14 14 14 14 14 14 15 15 15 15 15 15 15 15 15 15 16 16 16 15 15 15 15 16 16 16 17 17 17
12 12 13 13 13 13 13 13 13 13 13 14 14 14 14 14 14 14 14 14 14 14 15 15 15 15 15 15 15 15 15 15 15 15 15 15 16 16 16 16 16 16 17
12 12 12 12 12 12 12 12 12 12 13 13 13 13 13 13 13 13 13 13 14 14 14 14 14 14 15 15 15 15 15 15 15 15 15 15 15 16 16 16 16 16 16
11 12 12 12 12 12 12 12 12 12 12 12 13 13 13 13 13 13 13 13 13 13 14 14 14 14 14 15 15 15 15 15 14 15 15 15 15 15 15 15 16 16 16
11 11 11 11 11 11 11 12 12 12 12 12 12 12 12 12 12 12 13 13 13 13 13 13 13 13 14 14 14 14 15 14 14 14 14 14 15 15 15 15 15 15 15
9 9 10 10 10 11 11 11 11 11 11 12 12 12 12 12 12 12 12 12 13 13 13 13 13 13 13 13 13 14 14 13 13 14 14 14 15 15 15 15 15 15 15
8 9 9 9 9 10 10 10 10 11 11 11 11 11 11 11 11 12 12 12 12 12 12 12 13 12 12 13 13 13 13 13 13 13 13 14 15 15 15 15 15 15 15
7 8 8 9 9 9 9 9 9 9 9 9 10 11 11 11 11 11 11 11 11 12 12 12 12 12 12 12 12 13 13 13 13 13 13 14 15 15 15 15 15 15 15
6 7 7 7 7 8 8 8 8 7 7 6 6 7 8 8 9 10 10 10 10 11 11 11 12 12 12 12 12 12 12 13 13 13 13 13 14 15 15 15 15 15 15
5 5 5 5 5 6 6 6 5 5 5 5 4 4 4 5 6 6 7 8 8 9 10 10 11 11 11 12 12 12 12 12 13 13 12 12 13 14 14 15 15 15 15
3 3 3 4 4 4 4 4 4 4 3 3 3 2 2 2 3 5 5 5 5 7 8 8 9 10 10 11 11 12 12 12 12 12 12 12 12 13 13 14 14 15 15
2 2 2 2 2 3 3 3 3 3 2 1 1 1 1 2 2 3 3 3 4 5 5 6 6 7 8 9 10 11 11 11 12 12 12 12 12 12 13 13 13 14 15
1 1 1 1 1 0 1 1 1 1 1 0 -0 -1 -0 0 1 1 1 2 2 3 3 3 4 4 6 7 9 9 10 10 11 11 12 12 12 12 12 12 13 13 14
1 1 0 -0 -0 -1 -0 -0 -0 -1 -1 -1 -1 -1 -1 -1 -1 -0 -0 1 1 1 2 2 3 3 4 5 7 8 9 10 10 11 11 12 12 12 12 12 12 13 13
-1 -1 -1 -1 -2 -2 -3 -3 -2 -3 -3 -4 -4 -3 -2 -2 -2 -3 -3 -2 -1 -1 0 0 1 1 2 3 5 7 9 9 10 10 11 11 12 12 12 12 12 12 12
-3 -3 -3 -3 -3 -4 -5 -4 -4 -4 -4 -4 -5 -5 -4 -4 -5 -5 -5 -5 -4 -3 -2 -2 -1 -1 -0 1 2 4 8 10 10 10 11 11 11 12 11 12 12 12 12
-4 -4 -4 -3 -4 -5 -5 -5 -5 -5 -5 -5 -5 -6 -6 -6 -6 -6 -5 -5 -5 -5 -5 -4 -4 -4 -3 -1 0 2 5 9 10 11 11 11 11 11 11 11 12 12 12
-5 -5 -5 -5 -5 -6 -6 -7 -7 -7 -7 -7 -7 -7 -6 -6 -6 -6 -6 -6 -6 -6 -6 -5 -5 -5 -4 -3 -2 0 2 4 6 9 10 10 10 11 11 11 11 12 12
-6 -6 -6 -6 -6 -6 -7 -8 -8 -8 -8 -8 -8 -8 -7 -7 -7 -7 -7 -7 -6 -6 -6 -6 -5 -5 -4 -4 -3 -2 -1 2 4 5 8 10 10 10 10 11 11 11 12
-6 -7 -7 -7 -7 -7 -7 -8 -9 -9 -9 -9 -9 -9 -9 -8 -7 -7 -7 -7 -7 -7 -6 -6 -5 -5 -4 -4 -4 -3 -2 -1 2 4 6 8 9 10 10 10 10 11 11
Wind_Speed
14 11 12 12 12 12 13 13 13 13 13 8 7 7 8 8 9 8 8 7 5 4 4 5 4 4 5 4 3 3 3 3 2 3 4 6 7 7 7 6 5 6 7
15 16 15 15 14 13 14 14 13 12 12 11 10 9 9 10 9 9 9 8 8 8 8 8 8 7 7 6 5 4 4 4 4 3 3 6 7 8 7 6 4 4 5
22 23 25 24 20 17 14 13 12 12 11 11 11 11 11 12 12 10 9 9 10 10 11 11 11 10 9 8 7 5 6 5 6 5 5 7 8 8 7 6 4 4 5
25 27 31 32 30 26 23 19 16 15 13 11 10 11 12 13 13 12 11 11 11 11 12 12 12 12 10 9 8 8 8 7 7 6 9 7 7 9 7 7 7 6 6
25 27 32 34 35 34 32 29 26 22 18 14 12 12 13 14 14 14 14 13 12 12 12 12 12 12 12 9 10 10 10 8 8 9 8 6 6 7 9 9 8 7 7
25 28 32 35 35 35 35 34 33 31 27 22 16 13 14 15 15 16 17 14 13 13 13 12 10 10 10 10 10 11 11 9 10 11 9 8 8 7 9 10 10 9 8
25 28 31 36 36 36 37 35 34 33 32 31 27 21 18 16 15 17 17 15 13 13 12 10 9 8 7 7 9 9 10 10 13 10 10 10 8 6 10 11 11 10 10
26 28 30 33 34 34 36 36 35 34 33 32 33 30 27 23 18 17 15 13 14 12 10 8 9 9 8 7 6 6 5 7 12 12 11 10 8 7 11 13 13 12 11
28 28 30 31 30 30 30 33 32 33 33 32 33 32 29 27 25 20 17 16 15 13 12 11 10 10 9 7 5 3 2 3 10 9 11 9 6 7 8 13 15 15 14
27 29 30 31 30 29 27 29 29 30 32 30 31 32 29 25 25 24 21 21 19 16 14 13 12 11 11 9 7 4 4 6 11 10 8 6 3 7 8 9 14 17 17
25 26 28 29 30 29 26 26 26 26 28 28 28 30 26 22 22 21 22 23 22 18 16 15 13 13 12 11 9 7 7 10 9 8 7 2 3 6 8 10 10 16 18
25 24 25 26 28 27 24 23 22 21 22 23 24 26 23 22 21 21 21 23 22 21 18 14 14 14 14 11 10 10 10 11 10 9 8 5 6 8 9 10 12 13 18
21 22 24 25 26 26 22 21 20 19 20 21 23 25 24 21 21 21 19 19 19 18 15 15 13 11 12 11 9 10 10 9 9 9 9 9 9 10 11 11 13 13 16
21 22 23 25 24 24 22 20 20 19 19 20 21 23 22 19 18 20 17 19 17 15 15 13 11 12 12 14 14 13 12 10 10 9 8 9 11 12 13 14 14 14 15
21 22 22 25 25 24 21 20 19 19 20 21 19 20 22 19 17 18 17 18 18 18 17 14 12 12 12 12 12 13 14 14 13 12 9 11 14 14 14 15 16 16 16
21 21 21 23 24 24 21 21 20 20 20 20 19 22 22 21 19 18 16 16 16 18 19 17 16 13 12 11 12 13 14 15 15 14 13 11 15 16 16 16 16 18 18
20 20 20 21 23 23 21 21 20 19 20 19 19 21 23 24 22 21 16 14 16 19 19 17 17 14 12 12 13 14 13 14 14 14 13 12 12 15 17 17 17 18 19
19 20 20 21 22 23 22 22 20 19 19 18 18 19 23 24 25 22 16 14 19 18 15 13 14 14 13 13 12 12 12 12 16 16 14 14 13 12 14 17 18 19 20
20 21 21 22 22 22 21 21 20 20 19 18 18 19 22 22 24 21 17 17 20 16 13 13 13 14 14 14 13 13 13 13 14 14 16 15 15 14 14 14 18 20 20
20 20 22 21 22 21 19 18 16 16 17 18 18 21 22 21 22 21 17 19 19 14 14 14 16 15 14 14 14 15 15 14 13 14 15 14 13 15 15 15 14 16 21
20 21 23 22 21 18 15 16 16 16 14 13 17 22 23 23 22 20 17 17 16 15 16 17 16 17 14 13 13 14 15 18 18 15 14 14 15 15 15 14 14 13 13
19 20 21 21 21 19 15 15 15 16 14 15 17 19 22 24 23 19 18 15 16 15 17 17 17 14 14 12 9 10 10 13 15 15 15 14 15 13 14 14 14 14 13
19 19 19 21 21 20 21 17 16 14 14 14 16 15 21 24 23 21 20 18 17 15 15 17 16 16 15 15 11 7 7 8 11 12 14 14 14 13 13 13 15 14 14
19 17 19 20 20 20 21 17 19 15 15 17 16 15 21 22 23 23 21 20 17 15 16 16 15 15 15 14 13 11 11 9 7 9 9 10 11 12 13 12 12 13 13
18 17 17 19 19 20 20 19 18 17 16 15 17 19 19 19 22 23 23 21 18 15 17 17 17 16 13 14 13 14 15 13 14 9 12 11 9 9 10 11 11 11 11
17 16 17 19 19 19 19 19 19 20 20 20 20 19 18 16 17 22 24 22 20 17 18 18 17 18 15 16 14 13 13 11 11 10 11 14 14 12 10 8 9 10 9
Wind_Direction
358 10 7 4 7 360 355 0 7 7 2 353 357 359 351 346 344 341 339 336 329 325 319 303 294 291 287 275 244 213 181 164 175 186 200 193 170 159 154 153 179 149 131
1 6 11 1 3 1 357 357 358 358 0 360 355 352 343 334 330 327 320 319 318 314 309 302 296 287 278 274 260 238 212 186 178 176 198 207 186 174 173 177 241 121 149
9 12 13 9 1 355 349 347 348 347 345 343 344 343 336 328 320 314 315 312 309 307 303 296 291 284 272 265 260 247 235 213 191 181 207 211 190 186 186 187 203 171 172
19 20 20 23 20 14 5 355 349 343 336 327 327 328 323 316 313 311 307 306 304 306 303 290 284 279 270 260 252 243 237 224 203 198 221 211 192 171 185 191 198 197 190
26 25 24 26 27 27 24 19 8 355 345 335 326 318 313 310 305 301 298 297 299 299 301 292 282 276 268 256 246 243 240 227 201 220 230 220 209 171 191 197 200 198 199
29 29 28 28 29 28 26 25 22 16 7 353 335 320 311 304 304 305 299 292 296 296 294 293 286 280 269 255 244 241 241 226 213 228 224 222 218 187 203 203 201 197 201
28 28 28 28 28 28 26 24 22 21 19 15 5 349 334 317 311 315 306 292 296 299 293 293 299 297 287 264 247 239 237 224 234 233 225 223 222 206 223 214 203 198 202
27 26 25 24 23 24 24 23 23 21 19 18 16 10 1 346 330 323 320 306 296 296 292 290 299 301 298 284 267 247 234 232 234 234 229 228 214 226 235 221 207 201 203
28 26 23 21 19 18 19 19 18 19 18 18 15 11 7 4 354 344 333 325 315 301 292 287 283 283 284 283 271 239 215 240 251 241 236 238 209 238 244 222 212 205 203
27 24 19 17 15 12 11 13 13 16 15 13 14 11 8 6 2 356 351 345 329 314 306 297 283 280 276 272 264 237 200 236 245 243 239 236 235 257 254 237 226 217 208
24 20 16 13 10 7 6 5 7 10 11 10 9 6 5 3 1 355 355 354 348 332 315 301 290 287 282 260 248 243 232 241 240 247 244 192 282 275 261 253 247 233 221
17 14 12 10 6 3 2 1 0 3 5 6 5 4 0 357 355 353 349 352 350 345 330 309 290 279 267 256 229 220 245 242 246 243 238 177 242 264 266 261 258 248 231
13 11 9 7 6 3 359 358 357 356 358 358 1 0 358 356 353 351 348 348 345 343 339 327 308 284 270 265 265 249 250 257 251 248 236 194 227 247 257 261 261 252 237
10 8 5 3 3 2 359 357 355 354 352 351 353 356 356 352 349 348 344 342 339 340 335 329 316 301 283 270 262 259 254 250 252 253 244 204 232 242 249 252 256 253 243
7 3 1 358 360 357 356 356 354 352 350 345 347 350 352 349 344 342 338 338 335 336 333 326 316 307 293 279 267 260 258 256 256 253 243 214 233 243 247 248 248 250 246
3 359 357 356 357 356 356 355 349 347 346 344 345 345 348 348 342 339 335 334 334 335 329 321 315 306 293 283 273 263 257 257 256 254 251 231 224 239 247 246 243 244 245
359 356 356 354 355 356 355 353 348 346 346 344 345 345 351 348 345 340 333 331 334 331 326 322 317 310 299 288 277 272 265 259 256 252 250 250 242 229 236 243 240 239 241
359 357 355 354 352 353 353 351 349 348 349 346 346 349 350 348 348 340 334 333 335 330 327 324 319 315 307 295 282 274 269 264 260 255 251 245 245 245 234 230 233 234 237
0 357 355 353 351 351 351 350 350 350 348 346 347 350 347 347 346 341 335 335 335 332 331 328 323 317 309 302 290 276 266 263 261 257 252 246 242 239 242 228 221 230 231
359 357 354 351 350 350 352 350 349 347 346 343 346 346 345 344 343 341 336 336 337 334 333 331 325 319 310 305 296 280 266 259 257 256 255 249 241 236 235 239 232 228 225
357 357 354 350 348 350 351 350 346 342 341 341 344 341 341 340 339 339 337 335 335 332 329 328 329 322 318 315 304 286 266 253 248 249 248 248 241 235 233 233 234 236 225
355 355 352 351 347 348 350 348 343 336 337 340 340 339 338 336 336 336 335 333 332 330 329 330 330 324 318 320 316 305 276 260 245 242 243 240 239 235 233 230 230 230 233
352 352 351 350 347 348 351 347 343 340 339 342 341 339 336 331 331 331 330 331 329 329 326 325 323 320 317 312 300 293 289 272 277 249 239 239 235 232 230 230 228 229 229
349 347 348 348 347 348 349 348 346 342 340 337 336 333 333 331 331 328 328 329 326 325 321 318 316 310 307 304 304 286 286 299 294 277 248 232 234 235 230 225 228 226 226
347 345 348 348 348 349 348 347 344 341 338 334 335 334 335 334 333 329 329 329 327 324 320 315 310 303 297 292 290 290 291 288 274 272 268 260 242 233 232 223 221 223 224
348 346 349 349 350 350 349 347 344 340 339 337 338 337 336 333 332 330 330 328 325 322 318 313 308 301 293 286 282 278 276 275 274 272 266 260 259 248 227 220 219 217 219
Height
1574 1571 1567 1565 1563 1561 1560 1559 1558 1556 1555 1553 1551 1550 1549 1548 1547 1547 1546 1545 1544 1543 1542 1542 1541 1541 1541 1541 1540 1540 1540 1540 1540 1540 1540 1541 1541 1540 1541 1541 1541 1542 1542
1577 1573 1570 1568 1565 1563 1561 1560 1559 1557 1555 1553 1551 1550 1549 1548 1547 1546 1545 1544 1543 1542 1542 1541 1540 1540 1540 1539 1539 1539 1539 1539 1539 1540 1540 1541 1541 1540 1541 1541 1542 1543 1542
1577 1573 1570 1568 1566 1564 1563 1561 1559 1557 1555 1553 1552 1550 1548 1547 1546 1545 1544 1543 1542 1541 1540 1540 1539 1538 1538 1537 1537 1537 1538 1538 1538 1539 1539 1540 1540 1540 1540 1541 1541 1542 1542
1576 1573 1570 1568 1565 1564 1562 1560 1559 1557 1555 1553 1551 1549 1547 1546 1545 1544 1543 1542 1541 1540 1538 1538 1537 1536 1535 1535 1535 1535 1536 1536 1537 1537 1538 1540 1539 1539 1539 1540 1541 1542 1542
1578 1574 1571 1568 1566 1563 1561 1558 1557 1555 1554 1553 1551 1549 1547 1545 1544 1543 1542 1540 1539 1537 1536 1535 1534 1533 1533 1532 1532 1533 1534 1534 1534 1535 1537 1537 1538 1537 1538 1539 1540 1541 1541
1578 1575 1572 1569 1566 1564 1561 1558 1556 1553 1551 1550 1549 1548 1546 1545 1543 1541 1540 1538 1536 1535 1534 1533 1532 1531 1530 1530 1530 1531 1531 1531 1532 1533 1534 1535 1536 1536 1537 1538 1539 1539 1540
1579 1575 1572 1569 1566 1564 1561 1559 1556 1554 1551 1549 1546 1545 1544 1543 1541 1539 1538 1536 1534 1532 1531 1531 1529 1528 1528 1527 1527 1528 1528 1529 1529 1531 1531 1532 1533 1534 1535 1536 1537 1538 1539
1580 1577 1574 1571 1568 1564 1562 1559 1557 1554 1552 1549 1546 1543 1541 1539 1538 1537 1535 1533 1532 1530 1529 1528 1527 1526 1525 1525 1524 1524 1525 1525 1526 1527 1528 1529 1531 1532 1533 1535 1535 1536 1537
1582 1578 1575 1572 1569 1567 1564 1561 1558 1555 1552 1549 1546 1543 1541 1537 1535 1533 1532 1530 1528 1528 1527 1526 1525 1524 1523 1522 1522 1521 1521 1522 1523 1524 1524 1526 1527 1529 1530 1532 1533 1534 1535
1583 1580 1577 1574 1571 1568 1565 1561 1558 1555 1551 1548 1545 1542 1539 1536 1533 1531 1529 1526 1525 1524 1523 1522 1521 1521 1520 1519 1519 1519 1518 1519 1520 1521 1521 1522 1523 1525 1527 1528 1530 1531 1533
1585 1582 1579 1576 1572 1569 1566 1562 1558 1554 1551 1547 1544 1541 1538 1534 1531 1529 1527 1524 1522 1520 1519 1518 1517 1516 1516 1515 1515 1515 1515 1516 1518 1517 1518 1518 1519 1521 1523 1524 1526 1527 1529
1586 1583 1580 1577 1573 1570 1566 1562 1559 1555 1551 1547 1543 1539 1535 1532 1529 1527 1524 1522 1520 1517 1515 1514 1513 1513 1512 1512 1512 1511 1512 1513 1513 1513 1514 1513 1515 1516 1518 1520 1522 1523 1525
1590 1586 1582 1578 1574 1570 1565 1561 1557 1553 1549 1545 1541 1537 1533 1530 1526 1523 1521 1518 1516 1514 1512 1510 1509 1509 1508 1508 1507 1507 1508 1509 1509 1509 1509 1508 1510 1511 1513 1514 1517 1519 1521
1592 1588 1583 1579 1574 1569 1565 1560 1556 1551 1547 1543 1539 1534 1530 1527 1523 1520 1517 1514 1512 1510 1508 1507 1505 1504 1503 1503 1503 1503 1503 1503 1503 1503 1503 1502 1504 1506 1507 1509 1511 1514 1516
1592 1588 1583 1578 1573 1568 1563 1558 1553 1549 1545 1541 1537 1532 1528 1523 1519 1516 1513 1510 1508 1505 1504 1502 1501 1499 1498 1498 1497 1497 1498 1498 1498 1498 1497 1496 1497 1499 1501 1503 1505 1508 1511
1591 1586 1581 1576 1571 1565 1560 1555 1550 1546 1542 1538 1535 1530 1526 1521 1516 1512 1509 1506 1503 1500 1498 1497 1496 1494 1493 1492 1492 1492 1492 1492 1492 1492 1492 1491 1491 1492 1494 1496 1498 1502 1505
1591 1585 1579 1574 1568 1563 1558 1552 1547 1543 1539 1535 1531 1528 1523 1518 1513 1508 1505 1501 1498 1494 1492 1490 1489 1488 1487 1486 1485 1485 1485 1485 1486 1486 1486 1486 1486 1486 1488 1490 1491 1494 1498
1591 1585 1579 1573 1567 1561 1556 1551 1545 1541 1536 1532 1528 1524 1519 1514 1509 1504 1501 1497 1493 1489 1486 1484 1483 1482 1481 1479 1478 1478 1478 1478 1478 1479 1479 1480 1480 1481 1482 1484 1486 1488 1491
1590 1584 1578 1571 1565 1559 1553 1547 1542 1538 1534 1530 1525 1520 1515 1510 1505 1501 1497 1493 1488 1485 1481 1479 1477 1476 1474 1472 1471 1470 1470 1471 1471 1471 1472 1473 1473 1474 1476 1478 1480 1482 1484
1590 1583 1577 1571 1564 1557 1550 1544 1538 1533 1529 1526 1523 1517 1512 1507 1502 1497 1493 1489 1485 1480 1477 1473 1471 1469 1468 1466 1464 1463 1463 1463 1463 1464 1464 1465 1466 1467 1469 1472 1474 1476 1478
1588 1582 1576 1569 1563 1556 1548 1542 1535 1530 1525 1521 1518 1514 1510 1505 1500 1495 1490 1485 1481 1477 1473 1469 1465 1462 1461 1460 1458 1456 1455 1455 1455 1456 1457 1458 1459 1461 1462 1464 1467 1470 1472
1588 1582 1575 1568 1562 1555 1549 1542 1536 1530 1525 1520 1515 1510 1506 1502 1498 1493 1488 1484 1479 1473 1469 1465 1461 1457 1456 1457 1455 1452 1449 1449 1447 1448 1449 1450 1451 1453 1455 1457 1460 1462 1465
1587 1580 1573 1566 1560 1554 1547 1540 1533 1528 1523 1517 1512 1507 1502 1499 1495 1491 1487 1482 1476 1471 1466 1461 1458 1454 1451 1450 1452 1451 1448 1443 1442 1441 1441 1442 1444 1446 1448 1450 1453 1455 1458
1586 1579 1572 1564 1558 1552 1545 1538 1532 1527 1522 1517 1512 1506 1500 1495 1491 1487 1483 1478 1473 1468 1463 1458 1455 1451 1448 1445 1443 1443 1443 1441 1440 1436 1436 1436 1437 1438 1440 1442 1445 1448 1451
1584 1578 1570 1563 1556 1550 1544 1538 1532 1527 1521 1516 1510 1504 1497 1491 1486 1482 1478 1474 1469 1464 1459 1454 1450 1447 1444 1441 1438 1436 1434 1434 1434 1434 1432 1432 1432 1432 1433 1435 1437 1440 1443
1583 1576 1569 1561 1555 1549 1542 1537 1531 1526 1519 1513 1507 1500 1493 1488 1482 1477 1473 1468 1464 1459 1454 1449 1444 1440 1437 1434 1431 1429 1428 1428 1427 1428 1427 1427 1428 1429 1429 1429 1431 1434 1436